Orbital Elements at Epoch 2459200.5 (2020-Dec-17.0) TDB
Reference: JPL 18 (heliocentric ecliptic J2000)
Element | Value | Uncertainty (1-sigma) | Units |
e | .2977399178581506 | 3.4662e-08 | |
a | 2.287690883602606 | 8.8107e-09 | au |
q | 1.606553987833926 | 7.9545e-08 | au |
i | 5.046458804118006 | 5.7822e-06 | deg |
node | 353.7128778340686 | 7.5369e-05 | deg |
peri | 331.2614877074334 | 7.6854e-05 | deg |
M | 171.7745855742222 | 1.8297e-05 | deg |
tp | 2458597.453435281529 (2019-Apr-23.95343528) | 6.1808e-05 | TDB |
period | 1263.846817460922 3.46 | 7.3013e-06 1.999e-08 | d yr |
n | .284844646539715 | 1.6456e-09 | deg/d |
Q | 2.968827779371286 | 1.1434e-08 | au |
|
| | Orbit Determination Parameters
Additional Information
|